Terug naar catalogus

PRAETORIAN SDA_506

ActiefPO
NORAD 100064·PAYLOAD·🇺🇸 United States

Gelanceerd Jul 16, 2026 vanaf Vandenberg Space Force Base

Loading…

Volgende Passages (komende 24 uur)

TLE

VersSource: Space-Track

Epoch: Sep 14, 2026, 23:00 UTC

1 A0064U 26163F   26257.95893365  .00000181  00000-0  14601-3 0  9993
2 A0064  81.4773 254.9692 0017125  55.1212 305.1553 13.86057504  8336

Volg PRAETORIAN SDA_506 in realtime met AllMySat

Download on the App Store